Location: Unspecified
(0.0000°N, 0.0000°E)
Time: 01:22:55
(UTC+01:00)

ISS - Visible Passes

Search period start: 23 January 2018 00:00
Search period end: 02 February 2018 00:00
Orbit: 402 x 407 km, 51.6° (Epoch: 23 January)

Date Brightness Start Highest point End Pass type
(mag) Time Alt. Az. Time Alt. Az. Time Alt. Az.
23 Jan -3.2 06:33:13 12° WNW 06:36:00 39° SW 06:39:06 10° SSE visible
24 Jan -3.6 05:43:45 64° NE 05:43:47 64° NE 05:47:02 10° SE visible
25 Jan -1.5 06:26:56 10° WSW 06:27:50 11° SW 06:28:46 10° SW visible
26 Jan -1.5 05:37:22 17° S 05:37:22 17° S 05:38:25 10° S visible
